Location: Buchdorf
(48.7842°N, 10.8275°E)
Time: 09:08:13
(UTC+00:00)

Cosmos 1174 - Pass Details

Date: 09 April 2020
Orbit: 371 x 1148 km, 66.1° (Epoch: 24 May)

Event Time Altitude Azimuth Distance (km) Brightness Sun altitude
Rises 19:54:43 0° 322° (NW) 2,639 8.7 -17.9°
Reaches altitude 10° 19:56:41 10° 322° (NW) 1,844 7.7 -18.2°
Maximum altitude 20:00:49 83° 236° (SW) 660 4.1 -18.7°
Enters shadow 20:02:47 37° 151° (SSE) 1,083 4.8 -19.0°
